Location: Unspecified
(35.6961°N, 0.0000°E)
Time: 20:38:44
(UTC+00:00)

Explorer 11/Cluster Stage 4 - Pass Details

Date: 23 May 2019
Orbit: 467 x 1260 km, 28.8° (Epoch: 17 June)

Event Time Altitude Azimuth Distance (km) Brightness Sun altitude
Rises 03:35:40 0° 239° (WSW) 3,182 - -13.6°
Reaches altitude 10° 03:38:39 10° 227° (SW) 2,110 - -13.1°
Exits shadow 03:40:18 17° 213° (SSW) 1,600 7.6 -12.8°
Maximum altitude 03:42:39 26° 171° (S) 1,193 7.3 -12.4°
Drops below altitude 10° 03:46:05 10° 114° (ESE) 1,791 8.8 -11.9°
Sets 03:48:24 0° 101° (E) 2,602 10.0 -11.5°
